RH
99 100 95 83 81 92 95 94 93 94 94 88 87 86 91 83 85 91 95 94 90 87 83 74 82 66 65 54 57 52 63 69 67 66 84 88 87 81 80 74 78 86 69 70 80 79 64
100 100 99 94 78 68 92 95 95 96 95 94 91 89 88 92 88 90 90 90 92 92 79 70 76 59 66 69 48 50 53 57 64 67 79 89 84 80 72 75 73 78 76 73 72 73 73
87 100 100 100 90 77 64 92 95 96 95 94 95 93 90 95 90 90 93 94 95 64 59 47 57 76 52 53 48 53 55 57 56 68 74 81 84 82 64 80 63 64 84 76 65 80 79
84 86 100 100 100 85 66 56 80 96 95 94 96 94 90 88 94 93 83 58 66 53 46 47 58 78 52 45 48 54 56 57 69 72 69 66 62 67 62 52 67 82 76 85 76 78 69
89 88 93 99 100 94 72 51 71 90 96 94 95 93 91 93 95 91 52 45 45 53 51 46 57 60 56 44 50 54 56 69 62 58 56 55 61 69 64 63 79 69 94 88 80 79 81
99 91 90 93 100 100 85 64 41 88 95 95 97 97 94 94 94 77 45 50 41 48 52 52 53 53 50 56 51 54 55 61 63 62 67 76 84 82 74 78 87 74 78 85 83 78 76
99 98 95 90 99 100 95 75 41 64 77 84 97 97 95 97 93 63 48 59 65 65 48 58 56 53 52 52 53 54 55 58 59 71 89 88 84 83 73 63 53 50 51 54 61 68 71
99 99 97 92 87 100 98 72 43 48 48 70 97 95 95 94 78 54 66 69 67 65 66 46 47 51 50 54 63 62 55 61 67 94 80 84 82 67 60 54 52 48 48 53 68 64 70
100 98 99 99 85 97 100 76 47 37 41 53 92 92 93 83 62 64 62 66 65 65 80 58 50 50 57 58 66 70 64 64 67 82 78 80 80 68 61 60 52 51 56 53 71 63 68
96 100 98 99 99 99 100 83 51 29 40 43 88 87 92 70 80 60 64 58 60 64 87 65 63 59 56 49 68 54 56 67 54 78 79 75 63 67 69 61 52 63 49 55 61 70 84
84 97 96 98 100 98 100 96 55 27 40 44 81 84 89 84 77 70 66 55 57 64 72 53 63 52 52 60 58 65 54 67 63 64 67 74 77 73 70 58 45 54 52 59 68 59 64
87 92 96 85 99 100 100 96 60 27 36 46 74 80 78 77 75 70 69 65 67 84 67 77 63 65 65 55 57 61 64 59 63 57 61 72 66 71 64 58 51 48 54 56 56 67 91
78 85 94 89 97 100 100 99 56 28 34 47 64 75 84 80 76 71 71 75 90 73 63 72 66 58 56 61 64 65 72 73 82 78 78 82 75 72 60 66 61 55 69 95 94 95 88
76 80 89 96 97 100 100 99 64 31 36 50 60 79 82 79 72 70 77 87 67 65 86 60 59 59 68 56 59 66 64 73 68 75 93 93 74 81 66 72 72 73 75 88 81 94 72
72 82 82 91 88 99 100 98 77 34 42 49 72 85 82 81 76 79 91 94 68 80 78 71 62 72 70 61 56 59 66 67 52 62 83 95 83 68 62 59 60 68 81 57 86 78 84
71 80 83 93 86 99 99 99 72 31 44 66 87 88 83 80 78 82 94 85 65 63 55 56 70 65 64 64 70 72 62 51 56 49 56 72 93 77 68 61 69 72 65 76 97 94 78
70 81 90 95 83 100 99 98 77 33 44 75 82 95 93 82 79 95 91 94 58 49 50 61 64 62 51 51 72 67 59 51 44 58 53 75 92 94 80 90 86 91 93 84 76 74 74
76 92 97 96 90 98 99 99 54 34 55 91 85 98 95 82 96 97 98 63 52 54 53 59 57 64 67 62 57 52 69 56 56 67 89 79 98 99 98 79 64 65 83 80 92 84 78
86 97 95 86 100 100 100 99 42 44 64 86 93 98 92 88 98 95 58 44 54 56 61 64 66 60 50 53 60 50 44 57 59 70 83 85 99 99 99 98 87 98 84 86 88 91 91
98 99 81 98 98 100 100 96 39 43 48 60 77 97 92 95 92 62 55 45 53 53 54 54 52 49 56 59 53 55 45 49 54 79 70 81 100 99 93 95 84 99 79 76 94 99 85
99 99 98 99 93 100 100 88 35 41 51 68 72 76 74 95 87 53 34 35 41 57 57 47 56 58 49 59 59 55 47 48 59 81 90 92 99 100 96 81 94 95 83 86 99 86 81
99 99 96 98 96 100 100 90 32 38 65 71 67 60 53 53 52 51 50 37 41 40 46 40 56 45 44 49 46 59 62 59 64 82 91 98 96 99 98 87 97 85 80 81 81 85 84
96 94 96 99 90 100 99 80 29 42 80 73 57 48 44 54 45 46 50 35 45 38 38 40 43 46 49 57 58 59 56 57 71 83 79 90 98 94 93 99 99 98 94 82 66 67 75
90 99 95 98 89 100 100 64 29 41 59 44 43 44 46 43 45 39 38 36 51 42 41 43 42 45 53 48 53 54 58 58 59 83 73 91 92 96 95 99 96 60 53 62 66 54 57
92 93 100 98 90 100 100 64 30 41 57 39 38 55 45 44 38 37 45 42 45 47 45 47 54 52 51 57 72 77 87 77 77 56 92 80 87 97 100 97 77 47 44 68 74 68 55
88 92 99 96 100 100 100 73 30 40 66 41 34 45 55 41 35 32 42 40 51 57 62 58 48 45 53 77 79 89 91 80 92 100 93 85 84 88 95 96 85 54 42 38 40 60 56
93 93 98 87 92 100 100 78 36 43 54 40 34 36 51 61 56 44 48 49 54 58 72 62 58 58 57 82 94 95 82 62 81 96 94 98 97 89 88 96 80 50 42 40 51 53 56
84 96 99 87 84 100 100 79 41 46 52 46 42 39 54 76 66 61 55 59 59 62 75 71 76 79 80 84 91 92 79 78 80 71 82 84 96 96 88 99 94 52 46 50 57 51 46
96 98 96 100 100 100 100 89 52 53 53 42 38 51 56 77 74 66 68 65 59 60 76 73 71 70 85 91 95 95 92 93 80 92 66 79 89 91 99 90 80 75 64 61 57 52 47
Wind_Speed
23 21 17 16 15 13 12 11 12 13 13 13 13 13 13 12 13 12 13 14 14 14 14 14 16 16 12 2 3 10 9 8 4 5 7 3 6 3 6 6 6 1 4 5 11 10 4
26 24 23 19 15 14 13 11 11 12 14 13 13 13 13 12 12 12 12 14 13 13 13 13 13 16 2 5 13 12 8 10 5 7 4 6 2 7 6 9 10 7 3 3 7 10 9
28 27 26 23 18 15 14 12 11 11 13 13 13 13 13 12 12 11 11 13 13 12 11 10 10 11 3 3 9 13 11 5 8 7 1 9 4 7 2 8 7 11 10 4 5 3 7
30 28 27 28 22 17 14 13 12 11 12 13 13 13 12 12 11 11 10 10 10 9 8 6 10 8 1 8 11 13 17 7 7 5 4 2 8 6 1 2 5 6 3 4 3 8 2
32 29 28 28 26 20 16 14 12 11 11 13 13 12 11 12 10 10 7 9 8 8 7 6 8 2 4 8 15 15 11 9 9 7 7 2 4 3 7 5 5 2 5 4 6 4 6
33 31 28 28 30 23 17 15 12 11 10 11 13 12 11 10 10 8 8 8 4 7 3 4 9 4 6 6 11 12 11 3 4 4 5 8 6 4 4 4 4 7 6 6 6 3 6
35 35 32 27 29 27 19 17 13 10 10 10 12 12 11 9 8 5 8 3 3 4 8 4 2 3 4 11 7 7 9 5 2 6 5 4 5 1 4 4 3 5 9 5 12 12 10
33 37 36 31 29 32 23 18 14 11 10 9 12 12 10 7 4 2 4 1 1 2 3 2 1 3 2 8 3 8 15 1 4 4 2 4 1 2 7 7 6 2 6 6 1 15 5
36 36 39 34 32 29 29 20 15 12 10 9 11 10 8 2 0 1 2 3 2 1 2 2 1 1 3 4 3 6 7 4 3 5 4 3 2 9 7 6 4 2 4 4 5 4 3
40 37 38 37 33 31 30 22 17 13 11 8 10 10 6 3 0 1 2 2 1 1 4 4 2 1 2 1 3 3 5 1 2 3 5 1 3 4 6 1 3 2 2 7 9 6 4
40 41 40 34 35 32 33 24 19 14 11 8 8 8 5 5 1 1 4 4 1 0 4 4 2 2 2 1 2 1 3 4 2 2 4 3 4 3 2 3 1 1 3 6 4 3 3
37 39 40 43 40 36 35 27 20 16 12 7 7 6 8 5 2 3 3 4 0 5 2 2 2 2 3 3 3 2 2 1 3 1 3 2 2 3 3 3 4 5 3 4 4 3 1
39 39 38 40 39 37 39 28 21 17 12 8 6 10 10 2 2 7 7 2 4 5 1 3 3 4 3 5 5 5 3 3 2 2 5 5 4 5 1 2 5 2 4 1 3 1 5
40 41 40 37 42 32 39 28 22 19 12 8 9 14 7 2 6 9 2 4 6 4 5 3 3 5 3 6 5 7 3 6 8 4 3 5 5 7 5 5 5 5 6 4 5 4 4
42 41 44 39 43 40 42 31 25 22 14 11 17 11 5 8 8 5 3 2 7 6 6 4 4 3 3 5 5 5 9 7 7 11 5 5 5 2 4 3 6 5 3 3 4 3 3
42 43 42 38 43 47 44 35 29 26 18 24 18 9 6 9 8 5 2 4 4 5 4 2 5 7 4 4 5 6 4 5 5 12 10 4 3 4 4 3 3 2 1 2 2 3 3
39 44 40 37 47 40 42 37 34 27 23 26 11 3 8 12 8 1 3 5 3 4 4 5 4 4 3 3 7 4 4 6 3 4 5 6 4 1 3 7 9 3 1 1 3 4 4
37 41 36 36 44 40 47 39 36 31 31 22 6 3 13 14 2 3 2 4 2 5 3 2 2 3 3 4 4 2 5 7 5 5 6 3 3 4 7 3 2 3 5 4 4 4 4
38 36 37 47 33 35 51 40 39 37 44 16 4 3 8 5 3 3 3 2 3 4 5 5 4 6 2 0 3 3 2 7 9 4 2 4 3 3 3 1 4 5 5 4 2 2 4
37 38 36 39 36 29 52 45 43 41 41 17 4 3 0 2 3 3 4 4 3 3 2 3 2 2 2 3 4 4 5 5 5 4 10 7 2 1 3 2 3 4 10 12 8 3 2
37 32 34 32 26 31 53 50 46 42 42 15 3 5 6 5 5 5 4 2 4 4 2 2 2 3 1 2 5 4 5 4 4 9 5 3 3 5 8 11 6 3 6 13 13 9 9
30 26 30 19 27 41 56 51 49 42 39 8 4 4 1 2 4 6 4 4 6 3 4 1 2 3 4 1 1 3 3 1 3 5 4 3 1 5 5 10 8 8 12 13 17 16 14
22 25 27 20 18 50 56 54 47 43 41 7 6 1 3 2 3 5 5 4 5 6 4 5 4 2 3 2 3 5 4 6 5 4 1 1 2 2 4 1 8 4 13 14 11 15 15
23 23 22 21 20 42 53 52 46 47 49 8 7 4 3 2 3 5 6 3 5 4 4 3 4 3 1 5 5 5 5 7 5 5 4 3 2 0 4 2 0 5 2 16 18 13 16
21 24 25 22 25 48 51 48 48 47 49 11 7 4 3 3 3 4 7 5 6 3 2 2 3 1 2 3 3 4 3 4 1 4 6 4 1 2 1 2 6 4 3 3 7 8 5
22 21 20 18 13 51 52 49 48 47 49 21 6 1 3 5 3 3 4 4 4 4 2 3 2 1 3 1 3 2 1 1 2 3 4 5 1 1 3 1 2 3 3 3 4 3 5
20 22 23 13 17 47 52 49 50 46 49 26 4 3 4 4 3 4 3 5 5 3 3 3 2 1 2 2 2 1 2 2 0 2 4 3 3 5 5 3 5 4 3 2 2 3 3
19 21 20 22 24 41 46 45 45 43 47 24 7 2 3 3 3 5 4 4 3 3 4 4 3 2 2 2 3 2 1 2 2 2 4 6 4 3 3 2 5 6 4 2 3 4 1
19 20 21 13 40 46 41 36 42 39 38 22 6 7 10 5 3 13 17 14 6 3 5 2 4 2 3 3 1 2 1 3 0 2 5 0 1 1 3 3 1 10 12 6 5 3 4
Wind_Direction
304 296 296 302 303 301 303 312 317 322 324 329 326 329 336 335 331 329 329 333 335 335 329 333 338 337 335 28 314 334 341 8 37 4 91 311 258 292 138 134 119 273 10 65 340 360 1
297 290 289 290 295 297 292 298 307 314 321 322 321 324 335 331 330 329 329 327 328 332 334 340 342 344 335 35 345 341 347 322 1 360 105 200 293 295 291 144 144 204 216 20 359 345 320
301 291 282 285 285 287 291 289 298 306 314 321 320 322 328 327 328 323 320 319 317 333 340 351 354 345 342 306 343 355 346 310 347 9 112 116 212 293 297 140 135 133 170 351 345 31 312
299 299 283 285 274 278 283 288 291 297 308 318 317 321 325 327 324 319 316 313 320 337 348 352 335 325 264 349 357 0 353 42 72 67 105 47 260 227 41 165 82 102 75 116 5 351 203
301 296 291 290 267 268 274 281 280 289 300 312 313 319 322 322 321 315 313 307 309 331 322 338 337 197 345 349 2 356 10 75 70 77 54 73 30 15 354 96 123 151 115 108 357 290 299
304 297 292 288 263 264 265 269 275 278 293 304 307 311 314 314 318 314 316 303 296 335 58 328 299 46 8 338 329 333 352 108 52 338 21 33 28 37 21 63 158 160 129 173 177 233 252
320 311 291 287 279 260 263 261 269 269 284 300 302 308 312 316 311 327 341 11 21 4 50 89 295 46 331 328 29 337 349 120 55 42 45 10 62 40 278 247 197 131 172 190 192 188 167
319 318 302 282 276 258 258 253 259 260 277 293 296 302 304 310 309 342 342 356 77 144 99 187 179 130 321 318 331 339 348 229 40 88 100 38 168 301 284 275 258 271 181 199 10 152 162
315 317 322 288 274 264 254 246 250 252 265 284 288 300 296 301 76 77 49 110 150 125 124 139 150 72 274 347 12 321 6 323 132 121 101 132 314 309 310 302 200 241 205 177 154 167 224
313 312 316 304 263 256 248 240 243 245 252 274 280 291 278 147 250 172 142 211 180 44 79 317 197 238 265 263 328 315 321 313 340 134 167 202 244 286 322 318 143 231 162 137 129 130 193
311 307 313 308 276 256 246 237 237 235 241 262 272 278 219 161 178 263 166 192 175 32 57 282 116 169 219 338 175 281 312 333 334 156 72 267 352 345 306 224 242 231 186 139 143 172 101
307 306 305 309 319 251 248 230 226 225 230 246 259 240 171 170 200 156 199 161 245 49 271 35 186 218 195 197 204 181 274 184 256 256 35 274 301 252 255 313 1 124 56 91 57 73 43
304 302 303 303 299 246 240 222 219 218 216 229 236 181 175 148 210 173 145 73 54 98 275 265 240 209 209 186 172 177 194 190 209 159 232 333 272 299 196 25 359 84 98 69 21 11 219
301 300 300 295 312 265 230 219 217 210 201 211 180 170 176 117 153 160 125 64 78 212 193 258 221 261 219 161 203 187 306 223 212 240 141 164 311 187 191 184 185 201 160 163 185 187 219
296 295 297 290 287 300 221 214 200 202 187 177 154 164 174 161 162 145 80 99 188 195 168 198 181 233 254 212 191 198 205 205 229 194 221 184 263 212 197 172 144 234 198 226 99 287 74
292 292 293 286 287 307 217 208 198 187 174 159 150 172 170 173 157 107 81 235 165 156 158 109 204 189 236 201 178 187 219 220 220 209 195 216 271 201 198 108 42 138 242 135 20 159 230
288 291 291 282 287 296 218 198 190 179 166 156 149 170 163 165 143 100 177 229 192 183 163 174 232 260 278 264 194 201 226 299 249 107 291 166 209 67 134 206 171 128 214 173 133 168 180
286 288 280 276 287 285 211 189 190 172 159 159 152 153 161 157 158 206 205 201 281 153 147 241 268 239 233 304 287 267 224 218 128 115 153 288 199 215 206 290 186 201 176 169 149 217 212
289 287 284 278 285 272 202 187 190 174 164 149 142 118 168 192 189 225 231 235 188 192 181 191 228 211 202 262 320 266 270 24 27 60 168 149 227 179 181 203 212 231 193 153 115 50 228
289 293 283 287 263 231 196 187 188 176 169 165 135 132 137 205 259 218 187 205 205 201 248 218 284 13 326 295 248 277 340 37 39 25 331 148 236 294 254 28 113 190 200 198 179 173 219
288 280 282 287 256 236 190 185 186 176 169 179 171 203 182 183 242 204 142 160 163 171 228 199 301 245 62 286 336 300 15 343 45 359 37 70 259 211 267 259 240 209 201 201 213 216 204
294 284 281 273 263 204 190 186 183 170 169 198 158 147 176 148 113 134 157 202 180 150 161 228 191 19 34 206 202 273 34 346 277 29 53 358 253 328 262 222 217 228 200 199 219 220 246
299 303 284 268 284 195 186 184 179 165 170 180 204 229 121 176 145 126 196 176 176 125 49 89 116 55 335 322 285 247 217 240 217 152 108 351 83 5 283 219 156 225 218 219 218 221 218
296 310 289 288 271 195 183 184 175 174 179 157 192 153 120 167 165 188 138 120 145 155 142 105 86 129 142 312 303 262 230 240 216 210 169 139 41 95 281 354 282 254 185 214 220 240 223
297 295 312 286 289 191 185 181 179 181 184 183 182 219 117 136 148 78 126 114 104 97 104 113 58 161 10 359 10 4 348 13 99 234 180 136 117 293 264 302 293 323 327 150 172 258 219
293 301 311 277 293 191 189 181 184 185 186 188 170 235 83 118 231 127 126 135 154 147 82 95 88 68 57 73 57 89 263 220 8 110 101 123 320 294 333 214 250 243 280 305 110 308 326
280 289 295 293 281 183 182 180 186 186 190 191 175 210 80 107 351 41 141 160 126 107 117 127 148 55 85 65 78 123 295 335 12 96 162 178 195 220 252 276 283 307 301 304 103 234 352
291 278 284 309 220 184 174 178 185 186 191 185 183 196 79 91 22 21 38 116 79 111 141 189 74 3 62 85 110 265 80 295 335 227 179 191 180 197 198 241 259 351 352 9 242 295 45
285 276 273 288 177 173 168 175 186 187 188 177 129 146 111 73 107 95 68 56 66 97 127 84 154 116 164 101 62 92 347 10 57 286 337 211 245 207 220 236 49 351 346 349 359 320 339